Volver al catálogo

SL-8 R/B

ActivoUNKNOWN
NORAD 10011·ROCKET BODY·🇷🇺 Russia

Lanzado May 19, 1977 desde Plesetsk Cosmodrome

Loading…

Próximos Pases (próximas 24 horas)

TLE

ActualizadoSource: Space-Track

Época: Sep 14, 2026, 20:38 UTC

1 10011U 77036B   26257.85992003 -.00000098  00000-0 -15714-3 0  9994
2 10011  65.8610 280.1202 0700025   0.8716 187.9493 12.32260797197997

Sigue SL-8 R/B en tiempo real con AllMySat

Download on the App Store